Year,Month,Day,Hour,Minute,Value (Times are PST for temperature in C)
2015,02,17,00,00,3.20
2015,02,17,00,01,3.20
2015,02,17,00,02,3.10
2015,02,17,00,03,3.10
2015,02,17,00,04,3.10
2015,02,17,00,05,3.10
2015,02,17,00,06,3.00
2015,02,17,00,07,3.00
2015,02,17,00,08,2.90
2015,02,17,00,09,2.90
2015,02,17,00,10,2.90
2015,02,17,00,11,2.90
2015,02,17,00,12,2.80
2015,02,17,00,13,2.80
2015,02,17,00,14,2.80
2015,02,17,00,15,2.80
2015,02,17,00,16,2.80
2015,02,17,00,17,2.70
2015,02,17,00,18,2.70
2015,02,17,00,19,2.70
2015,02,17,00,20,2.70
2015,02,17,00,21,2.60
2015,02,17,00,22,2.60
2015,02,17,00,23,2.60
2015,02,17,00,24,2.60
2015,02,17,00,25,2.60
2015,02,17,00,26,2.60
2015,02,17,00,27,2.60
2015,02,17,00,28,2.60
2015,02,17,00,29,2.60
2015,02,17,00,30,2.70
2015,02,17,00,31,2.70
2015,02,17,00,32,2.70
2015,02,17,00,33,2.70
2015,02,17,00,34,2.70
2015,02,17,00,35,2.80
2015,02,17,00,36,2.80
2015,02,17,00,37,2.80
2015,02,17,00,38,2.80
2015,02,17,00,39,2.80
2015,02,17,00,40,2.80
2015,02,17,00,41,2.80
2015,02,17,00,42,2.70
2015,02,17,00,43,2.70
2015,02,17,00,44,2.70
2015,02,17,00,45,2.70
2015,02,17,00,46,2.70
2015,02,17,00,47,2.70
2015,02,17,00,48,2.60
2015,02,17,00,49,2.60
2015,02,17,00,50,2.60
2015,02,17,00,51,2.60
2015,02,17,00,52,2.60
2015,02,17,00,53,2.60
2015,02,17,00,54,2.60
2015,02,17,00,55,2.60
2015,02,17,00,56,2.60
2015,02,17,00,57,2.60
2015,02,17,00,58,2.50
2015,02,17,00,59,2.50
2015,02,17,01,00,2.50
2015,02,17,01,01,2.50
2015,02,17,01,02,2.50
2015,02,17,01,03,2.50
2015,02,17,01,04,2.40
2015,02,17,01,05,2.40
2015,02,17,01,06,2.40
2015,02,17,01,07,2.40
2015,02,17,01,08,2.40
2015,02,17,01,09,2.40
2015,02,17,01,10,2.50
2015,02,17,01,11,2.50
2015,02,17,01,12,2.50
2015,02,17,01,13,2.50
2015,02,17,01,14,2.50
2015,02,17,01,15,2.50
2015,02,17,01,16,2.50
2015,02,17,01,17,2.50
2015,02,17,01,18,2.50
2015,02,17,01,19,2.40
2015,02,17,01,20,2.40
2015,02,17,01,21,2.40
2015,02,17,01,22,2.40
2015,02,17,01,23,2.40
2015,02,17,01,24,2.40
2015,02,17,01,25,2.30
2015,02,17,01,26,2.30
2015,02,17,01,27,2.30
2015,02,17,01,28,2.30
2015,02,17,01,29,2.30
2015,02,17,01,30,2.30
2015,02,17,01,31,2.30
2015,02,17,01,32,2.30
2015,02,17,01,33,2.30
2015,02,17,01,34,2.30
2015,02,17,01,35,2.30
2015,02,17,01,36,2.30
2015,02,17,01,37,2.30
2015,02,17,01,38,2.20
2015,02,17,01,39,2.20
2015,02,17,01,40,2.20
2015,02,17,01,41,2.20
2015,02,17,01,42,2.20
2015,02,17,01,43,2.20
2015,02,17,01,44,2.10
2015,02,17,01,45,2.10
2015,02,17,01,46,2.10
2015,02,17,01,47,2.10
2015,02,17,01,48,2.10
2015,02,17,01,49,2.10
2015,02,17,01,50,2.00
2015,02,17,01,51,2.00
2015,02,17,01,52,2.00
2015,02,17,01,53,1.90
2015,02,17,01,54,1.90
2015,02,17,01,55,1.90
2015,02,17,01,56,1.90
2015,02,17,01,57,1.90
2015,02,17,01,58,1.80
2015,02,17,01,59,1.80
2015,02,17,02,00,1.80
2015,02,17,02,01,1.80
2015,02,17,02,02,1.80
2015,02,17,02,03,1.80
2015,02,17,02,04,1.80
2015,02,17,02,05,1.80
2015,02,17,02,06,1.80
2015,02,17,02,07,1.80
2015,02,17,02,08,1.80
2015,02,17,02,09,1.80
2015,02,17,02,10,1.80
2015,02,17,02,11,1.80
2015,02,17,02,12,1.80
2015,02,17,02,13,1.80
2015,02,17,02,14,1.80
2015,02,17,02,15,1.80
2015,02,17,02,16,1.80
2015,02,17,02,17,1.80
2015,02,17,02,18,1.80
2015,02,17,02,19,1.80
2015,02,17,02,20,1.80
2015,02,17,02,21,1.80
2015,02,17,02,22,1.70
2015,02,17,02,23,1.70
2015,02,17,02,24,1.70
2015,02,17,02,25,1.70
2015,02,17,02,26,1.70
2015,02,17,02,27,1.70
2015,02,17,02,28,1.70
2015,02,17,02,29,1.70
2015,02,17,02,30,1.70
2015,02,17,02,31,1.70
2015,02,17,02,32,1.70
2015,02,17,02,33,1.70
2015,02,17,02,34,1.80
2015,02,17,02,35,1.80
2015,02,17,02,36,1.80
2015,02,17,02,37,1.80
2015,02,17,02,38,1.80
2015,02,17,02,39,1.80
2015,02,17,02,40,1.80
2015,02,17,02,41,1.90
2015,02,17,02,42,2.00
2015,02,17,02,43,2.00
2015,02,17,02,44,2.10
2015,02,17,02,45,2.20
2015,02,17,02,46,2.20
2015,02,17,02,47,2.20
2015,02,17,02,48,2.30
2015,02,17,02,49,2.30
2015,02,17,02,50,2.30
2015,02,17,02,51,2.30
2015,02,17,02,52,2.30
2015,02,17,02,53,2.30
2015,02,17,02,54,2.40
2015,02,17,02,55,2.40
2015,02,17,02,56,2.50
2015,02,17,02,57,2.60
2015,02,17,02,58,2.70
2015,02,17,02,59,2.80
2015,02,17,03,00,2.80
2015,02,17,03,01,2.80
2015,02,17,03,02,2.80
2015,02,17,03,03,2.80
2015,02,17,03,04,2.80
2015,02,17,03,05,2.80
2015,02,17,03,06,2.80
2015,02,17,03,07,2.80
2015,02,17,03,08,2.70
2015,02,17,03,09,2.70
2015,02,17,03,10,2.70
2015,02,17,03,11,2.70
2015,02,17,03,12,2.60
2015,02,17,03,13,2.60
2015,02,17,03,14,2.60
2015,02,17,03,15,2.60
2015,02,17,03,16,2.60
2015,02,17,03,17,2.60
2015,02,17,03,18,2.70
2015,02,17,03,19,2.70
2015,02,17,03,20,2.70
2015,02,17,03,21,2.80
2015,02,17,03,22,2.80
2015,02,17,03,23,2.80
2015,02,17,03,24,2.80
2015,02,17,03,25,2.90
2015,02,17,03,26,2.90
2015,02,17,03,27,2.80
2015,02,17,03,28,2.80
2015,02,17,03,29,2.80
2015,02,17,03,30,2.80
2015,02,17,03,31,2.70
2015,02,17,03,32,2.70
2015,02,17,03,33,2.60
2015,02,17,03,34,2.60
2015,02,17,03,35,2.50
2015,02,17,03,36,2.50
2015,02,17,03,37,2.40
2015,02,17,03,38,2.40
2015,02,17,03,39,2.40
2015,02,17,03,40,2.40
2015,02,17,03,41,2.40
2015,02,17,03,42,2.30
2015,02,17,03,43,2.30
2015,02,17,03,44,2.30
2015,02,17,03,45,2.30
2015,02,17,03,46,2.30
2015,02,17,03,47,2.30
2015,02,17,03,48,2.20
2015,02,17,03,49,2.20
2015,02,17,03,50,2.20
2015,02,17,03,51,2.20
2015,02,17,03,52,2.20
2015,02,17,03,53,2.20
2015,02,17,03,54,2.20
2015,02,17,03,55,2.20
2015,02,17,03,56,2.20
2015,02,17,03,57,2.20
2015,02,17,03,58,2.20
2015,02,17,03,59,2.20
2015,02,17,04,00,2.20
2015,02,17,04,01,2.20
2015,02,17,04,02,2.20
2015,02,17,04,03,2.20
2015,02,17,04,04,2.30
2015,02,17,04,05,2.30
2015,02,17,04,06,2.30
2015,02,17,04,07,2.30
2015,02,17,04,08,2.30
2015,02,17,04,09,2.30
2015,02,17,04,10,2.30
2015,02,17,04,11,2.30
2015,02,17,04,12,2.30
2015,02,17,04,13,2.30
2015,02,17,04,14,2.30
2015,02,17,04,15,2.30
2015,02,17,04,16,2.20
2015,02,17,04,17,2.20
2015,02,17,04,18,2.20
2015,02,17,04,19,2.20
2015,02,17,04,20,2.20
2015,02,17,04,21,2.20
2015,02,17,04,22,2.20
2015,02,17,04,23,2.20
2015,02,17,04,24,2.10
2015,02,17,04,25,2.10
2015,02,17,04,26,2.20
2015,02,17,04,27,2.10
2015,02,17,04,28,2.10
2015,02,17,04,29,2.10
2015,02,17,04,30,2.10
2015,02,17,04,31,2.10
2015,02,17,04,32,2.10
2015,02,17,04,33,2.00
2015,02,17,04,34,2.00
2015,02,17,04,35,2.00
2015,02,17,04,36,2.00
2015,02,17,04,37,2.00
2015,02,17,04,38,1.90
2015,02,17,04,39,1.90
2015,02,17,04,40,1.90
2015,02,17,04,41,1.90
2015,02,17,04,42,1.90
2015,02,17,04,43,1.90
2015,02,17,04,44,1.90
2015,02,17,04,45,1.80
2015,02,17,04,46,1.80
2015,02,17,04,47,1.80
2015,02,17,04,48,1.80
2015,02,17,04,49,1.80
2015,02,17,04,50,1.70
2015,02,17,04,51,1.70
2015,02,17,04,52,1.70
2015,02,17,04,53,1.70
2015,02,17,04,54,1.70
2015,02,17,04,55,1.60
2015,02,17,04,56,1.60
2015,02,17,04,57,1.60
2015,02,17,04,58,1.50
2015,02,17,04,59,1.50
2015,02,17,05,00,1.50
2015,02,17,05,01,1.50
2015,02,17,05,02,1.40
2015,02,17,05,03,1.40
2015,02,17,05,04,1.40
2015,02,17,05,05,1.30
2015,02,17,05,06,1.30
2015,02,17,05,07,1.30
2015,02,17,05,08,1.30
2015,02,17,05,09,1.30
2015,02,17,05,10,1.30
2015,02,17,05,11,1.30
2015,02,17,05,12,1.30
2015,02,17,05,13,1.30
2015,02,17,05,14,1.30
2015,02,17,05,15,1.30
2015,02,17,05,16,1.30
2015,02,17,05,17,1.30
2015,02,17,05,18,1.20
2015,02,17,05,19,1.20
2015,02,17,05,20,1.20
2015,02,17,05,21,1.20
2015,02,17,05,22,1.20
2015,02,17,05,23,1.20
2015,02,17,05,24,1.20
2015,02,17,05,25,1.20
2015,02,17,05,26,1.20
2015,02,17,05,27,1.30
2015,02,17,05,28,1.30
2015,02,17,05,29,1.30
2015,02,17,05,30,1.30
2015,02,17,05,31,1.30
2015,02,17,05,32,1.30
2015,02,17,05,33,1.30
2015,02,17,05,34,1.30
2015,02,17,05,35,1.30
2015,02,17,05,36,1.30
2015,02,17,05,37,1.30
2015,02,17,05,38,1.30
2015,02,17,05,39,1.30
2015,02,17,05,40,1.20
2015,02,17,05,41,1.20
2015,02,17,05,42,1.20
2015,02,17,05,43,1.20
2015,02,17,05,44,1.10
2015,02,17,05,45,1.10
2015,02,17,05,46,1.10
2015,02,17,05,47,1.10
2015,02,17,05,48,1.10
2015,02,17,05,49,1.00
2015,02,17,05,50,1.00
2015,02,17,05,51,1.00
2015,02,17,05,52,1.00
2015,02,17,05,53,1.00
2015,02,17,05,54,0.90
2015,02,17,05,55,0.90
2015,02,17,05,56,0.90
2015,02,17,05,57,0.90
2015,02,17,05,58,0.90
2015,02,17,05,59,0.90
2015,02,17,06,00,0.90
2015,02,17,06,01,0.90
2015,02,17,06,02,0.90
2015,02,17,06,03,0.90
2015,02,17,06,04,0.90
2015,02,17,06,05,0.90
2015,02,17,06,06,0.80
2015,02,17,06,07,0.80
2015,02,17,06,08,0.80
2015,02,17,06,09,0.80
2015,02,17,06,10,0.80
2015,02,17,06,11,0.80
2015,02,17,06,12,0.80
2015,02,17,06,13,0.80
2015,02,17,06,14,0.80
2015,02,17,06,15,0.80
2015,02,17,06,16,0.80
2015,02,17,06,17,0.80
2015,02,17,06,18,0.80
2015,02,17,06,19,0.80
2015,02,17,06,20,0.80
2015,02,17,06,21,0.80
2015,02,17,06,22,0.80
2015,02,17,06,23,0.80
2015,02,17,06,24,0.80
2015,02,17,06,25,0.80
2015,02,17,06,26,0.80
2015,02,17,06,27,0.80
2015,02,17,06,28,0.80
2015,02,17,06,29,0.80
2015,02,17,06,30,0.80
2015,02,17,06,31,0.80
2015,02,17,06,32,0.80
2015,02,17,06,33,0.80
2015,02,17,06,34,0.80
2015,02,17,06,35,0.80
2015,02,17,06,36,0.80
2015,02,17,06,37,0.80
2015,02,17,06,38,0.80
2015,02,17,06,39,0.80
2015,02,17,06,40,0.80
2015,02,17,06,41,0.80
2015,02,17,06,42,0.80
2015,02,17,06,43,0.80
2015,02,17,06,44,0.80
2015,02,17,06,45,0.80
2015,02,17,06,46,0.80
2015,02,17,06,47,0.80
2015,02,17,06,48,0.80
2015,02,17,06,49,0.80
2015,02,17,06,50,0.70
2015,02,17,06,51,0.70
2015,02,17,06,52,0.70
2015,02,17,06,53,0.70
2015,02,17,06,54,0.70
2015,02,17,06,55,0.70
2015,02,17,06,56,0.70
2015,02,17,06,57,0.70
2015,02,17,06,58,0.80
2015,02,17,06,59,0.80
2015,02,17,07,00,0.70
2015,02,17,07,01,0.70
2015,02,17,07,02,0.70
2015,02,17,07,03,0.70
2015,02,17,07,04,0.70
2015,02,17,07,05,0.70
2015,02,17,07,06,0.70
2015,02,17,07,07,0.70
2015,02,17,07,08,0.70
2015,02,17,07,09,0.70
2015,02,17,07,10,0.70
2015,02,17,07,11,0.70
2015,02,17,07,12,0.70
2015,02,17,07,13,0.70
2015,02,17,07,14,0.70
2015,02,17,07,15,0.70
2015,02,17,07,16,0.70
2015,02,17,07,17,0.70
2015,02,17,07,18,0.70
2015,02,17,07,19,0.70
2015,02,17,07,20,0.80
2015,02,17,07,21,0.80
2015,02,17,07,22,0.80
2015,02,17,07,23,0.80
2015,02,17,07,24,0.80
2015,02,17,07,25,0.80
2015,02,17,07,26,0.80
2015,02,17,07,27,0.80
2015,02,17,07,28,0.80
2015,02,17,07,29,0.80
2015,02,17,07,30,0.80
2015,02,17,07,31,0.80
2015,02,17,07,32,0.80
2015,02,17,07,33,0.80
2015,02,17,07,34,0.90
2015,02,17,07,35,0.80
2015,02,17,07,36,0.80
2015,02,17,07,37,0.80
2015,02,17,07,38,0.80
2015,02,17,07,39,0.80
2015,02,17,07,40,0.80
2015,02,17,07,41,0.80
2015,02,17,07,42,0.80
2015,02,17,07,43,0.80
2015,02,17,07,44,0.80
2015,02,17,07,45,0.80
2015,02,17,07,46,0.70
2015,02,17,07,47,0.70
2015,02,17,07,48,0.70
2015,02,17,07,49,0.70
2015,02,17,07,50,0.70
2015,02,17,07,51,0.70
2015,02,17,07,52,0.70
2015,02,17,07,53,0.70
2015,02,17,07,54,0.70
2015,02,17,07,55,0.70
2015,02,17,07,56,0.70
2015,02,17,07,57,0.70
2015,02,17,07,58,0.70
2015,02,17,07,59,0.70
2015,02,17,08,00,0.70
2015,02,17,08,01,0.70
2015,02,17,08,02,0.70
2015,02,17,08,03,0.70
2015,02,17,08,04,0.70
2015,02,17,08,05,0.70
2015,02,17,08,06,0.70
2015,02,17,08,07,0.80
2015,02,17,08,08,0.80
2015,02,17,08,09,0.80
2015,02,17,08,10,0.70
2015,02,17,08,11,0.70
2015,02,17,08,12,0.70
2015,02,17,08,13,0.80
2015,02,17,08,14,0.80
2015,02,17,08,15,0.80
2015,02,17,08,16,0.80
2015,02,17,08,17,0.80
2015,02,17,08,18,0.80
2015,02,17,08,19,0.80
2015,02,17,08,20,0.80
2015,02,17,08,21,0.80
2015,02,17,08,22,0.90
2015,02,17,08,23,0.90
2015,02,17,08,24,0.90
2015,02,17,08,25,1.00
2015,02,17,08,26,1.00
2015,02,17,08,27,1.10
2015,02,17,08,28,1.10
2015,02,17,08,29,1.20
2015,02,17,08,30,1.30
2015,02,17,08,31,1.30
2015,02,17,08,32,1.30
2015,02,17,08,33,1.30
2015,02,17,08,34,1.40
2015,02,17,08,35,1.50
2015,02,17,08,36,1.50
2015,02,17,08,37,1.60
2015,02,17,08,38,1.70
2015,02,17,08,39,1.70
2015,02,17,08,40,1.80
2015,02,17,08,41,1.80
2015,02,17,08,42,1.80
2015,02,17,08,43,1.90
2015,02,17,08,44,1.90
2015,02,17,08,45,2.00
2015,02,17,08,46,2.00
2015,02,17,08,47,2.10
2015,02,17,08,48,2.10
2015,02,17,08,49,2.20
2015,02,17,08,50,2.20
2015,02,17,08,51,2.30
2015,02,17,08,52,2.30
2015,02,17,08,53,2.40
2015,02,17,08,54,2.50
2015,02,17,08,55,2.60
2015,02,17,08,56,2.70
2015,02,17,08,57,2.80
2015,02,17,08,58,2.90
2015,02,17,08,59,3.00
2015,02,17,09,00,3.10
2015,02,17,09,01,3.30
2015,02,17,09,02,3.40
2015,02,17,09,03,3.60
2015,02,17,09,04,3.70
2015,02,17,09,05,3.90
2015,02,17,09,06,4.10
2015,02,17,09,07,4.20
2015,02,17,09,08,4.50
2015,02,17,09,09,4.80
2015,02,17,09,10,5.00
2015,02,17,09,11,5.20
2015,02,17,09,12,5.40
2015,02,17,09,13,5.60
2015,02,17,09,14,5.80
2015,02,17,09,15,6.00
2015,02,17,09,16,6.10
2015,02,17,09,17,6.30
2015,02,17,09,18,6.50
2015,02,17,09,19,6.70
2015,02,17,09,20,6.90
2015,02,17,09,21,7.10
2015,02,17,09,22,7.20
2015,02,17,09,23,7.30
2015,02,17,09,24,7.50
2015,02,17,09,25,7.60
2015,02,17,09,26,7.70
2015,02,17,09,27,7.80
2015,02,17,09,28,7.80
2015,02,17,09,29,7.90
2015,02,17,09,30,8.00
2015,02,17,09,31,8.00
2015,02,17,09,32,8.10
2015,02,17,09,33,8.10
2015,02,17,09,34,8.10
2015,02,17,09,35,8.10
2015,02,17,09,36,8.20
2015,02,17,09,37,8.20
2015,02,17,09,38,8.30
2015,02,17,09,39,8.30
2015,02,17,09,40,8.30
2015,02,17,09,41,8.40
2015,02,17,09,42,8.40
2015,02,17,09,43,8.40
2015,02,17,09,44,8.50
2015,02,17,09,45,8.50
2015,02,17,09,46,8.50
2015,02,17,09,47,8.50
2015,02,17,09,48,8.60
2015,02,17,09,49,8.60
2015,02,17,09,50,8.60
2015,02,17,09,51,8.60
2015,02,17,09,52,8.60
2015,02,17,09,53,8.60
2015,02,17,09,54,8.60
2015,02,17,09,55,8.60
2015,02,17,09,56,8.60
2015,02,17,09,57,8.60
2015,02,17,09,58,8.60
2015,02,17,09,59,8.60
2015,02,17,10,00,8.70
2015,02,17,10,01,8.70
2015,02,17,10,02,8.70
2015,02,17,10,03,8.70
2015,02,17,10,04,8.70
2015,02,17,10,05,8.70
2015,02,17,10,06,8.70
2015,02,17,10,07,8.80
2015,02,17,10,08,8.80
2015,02,17,10,09,8.80
2015,02,17,10,10,8.80
2015,02,17,10,11,8.90
2015,02,17,10,12,8.90
2015,02,17,10,13,8.90
2015,02,17,10,14,8.90
2015,02,17,10,15,8.90
2015,02,17,10,16,9.00
2015,02,17,10,17,9.00
2015,02,17,10,18,9.00
2015,02,17,10,19,9.00
2015,02,17,10,20,9.00
2015,02,17,10,21,8.90
2015,02,17,10,22,8.90
2015,02,17,10,23,8.90
2015,02,17,10,24,8.90
2015,02,17,10,25,8.80
2015,02,17,10,26,8.80
2015,02,17,10,27,8.80
2015,02,17,10,28,8.80
2015,02,17,10,29,8.80
2015,02,17,10,30,8.80
2015,02,17,10,31,8.80
2015,02,17,10,32,8.80
2015,02,17,10,33,8.80
2015,02,17,10,34,8.80
2015,02,17,10,35,8.80
2015,02,17,10,36,8.80
2015,02,17,10,37,8.80
2015,02,17,10,38,8.80
2015,02,17,10,39,8.90
2015,02,17,10,40,8.90
2015,02,17,10,41,8.90
2015,02,17,10,42,8.90
2015,02,17,10,43,9.00
2015,02,17,10,44,9.00
2015,02,17,10,45,9.00
2015,02,17,10,46,9.10
2015,02,17,10,47,9.10
2015,02,17,10,48,9.10
2015,02,17,10,49,9.10
2015,02,17,10,50,9.10
2015,02,17,10,51,9.20
2015,02,17,10,52,9.20
2015,02,17,10,53,9.20
2015,02,17,10,54,9.20
2015,02,17,10,55,9.20
2015,02,17,10,56,9.20
2015,02,17,10,57,9.20
2015,02,17,10,58,9.30
2015,02,17,10,59,9.30
2015,02,17,11,00,9.30
2015,02,17,11,01,9.30
2015,02,17,11,02,9.40
2015,02,17,11,03,9.40
2015,02,17,11,04,9.40
2015,02,17,11,05,9.40
2015,02,17,11,06,9.40
2015,02,17,11,07,9.40
2015,02,17,11,08,9.40
2015,02,17,11,09,9.40
2015,02,17,11,10,9.40
2015,02,17,11,11,9.40
2015,02,17,11,12,9.50
2015,02,17,11,13,9.50
2015,02,17,11,14,9.50
2015,02,17,11,15,9.60
2015,02,17,11,16,9.60
2015,02,17,11,17,9.60
2015,02,17,11,18,9.60
2015,02,17,11,19,9.60
2015,02,17,11,20,9.70
2015,02,17,11,21,9.70
2015,02,17,11,22,9.70
2015,02,17,11,23,9.70
2015,02,17,11,24,9.80
2015,02,17,11,25,9.80
2015,02,17,11,26,9.80
2015,02,17,11,27,9.80
2015,02,17,11,28,9.80
2015,02,17,11,29,9.80
2015,02,17,11,30,9.80
2015,02,17,11,31,9.80
2015,02,17,11,32,9.90
2015,02,17,11,33,9.90
2015,02,17,11,34,9.90
2015,02,17,11,35,10.00
2015,02,17,11,36,10.00
2015,02,17,11,37,10.10
2015,02,17,11,38,10.10
2015,02,17,11,39,10.10
2015,02,17,11,40,10.10
2015,02,17,11,41,10.10
2015,02,17,11,42,10.20
2015,02,17,11,43,10.20
2015,02,17,11,44,10.20
2015,02,17,11,45,10.20
2015,02,17,11,46,10.20
2015,02,17,11,47,10.20
2015,02,17,11,48,10.20
2015,02,17,11,49,10.20
2015,02,17,11,50,10.20
2015,02,17,11,51,10.20
2015,02,17,11,52,10.20
2015,02,17,11,53,10.20
2015,02,17,11,54,10.30
2015,02,17,11,55,10.30
2015,02,17,11,56,10.30
2015,02,17,11,57,10.30
2015,02,17,11,58,10.30
2015,02,17,11,59,10.30
2015,02,17,12,00,10.30
2015,02,17,12,01,10.30
2015,02,17,12,02,10.30
2015,02,17,12,03,10.30
2015,02,17,12,04,10.30
2015,02,17,12,05,10.30
2015,02,17,12,06,10.30
2015,02,17,12,07,10.30
2015,02,17,12,08,10.30
2015,02,17,12,09,10.30
2015,02,17,12,10,10.30
2015,02,17,12,11,10.40
2015,02,17,12,12,10.40
2015,02,17,12,13,10.40
2015,02,17,12,14,10.50
2015,02,17,12,15,10.50
2015,02,17,12,16,10.60
2015,02,17,12,17,10.60
2015,02,17,12,18,10.60
2015,02,17,12,19,10.60
2015,02,17,12,20,10.60
2015,02,17,12,21,10.60
2015,02,17,12,22,10.60
2015,02,17,12,23,10.60
2015,02,17,12,24,10.60
2015,02,17,12,25,10.60
2015,02,17,12,26,10.60
2015,02,17,12,27,10.60
2015,02,17,12,28,10.60
2015,02,17,12,29,10.60
2015,02,17,12,30,10.50
2015,02,17,12,31,10.50
2015,02,17,12,32,10.50
2015,02,17,12,33,10.50
2015,02,17,12,34,10.50
2015,02,17,12,35,10.50
2015,02,17,12,36,10.50
2015,02,17,12,37,10.50
2015,02,17,12,38,10.50
2015,02,17,12,39,10.50
2015,02,17,12,40,10.50
2015,02,17,12,41,10.60
2015,02,17,12,42,10.60
2015,02,17,12,43,10.70
2015,02,17,12,44,10.70
2015,02,17,12,45,10.70
2015,02,17,12,46,10.70
2015,02,17,12,47,10.70
2015,02,17,12,48,10.70
2015,02,17,12,49,10.70
2015,02,17,12,50,10.70
2015,02,17,12,51,10.80
2015,02,17,12,52,10.80
2015,02,17,12,53,10.80
2015,02,17,12,54,10.90
2015,02,17,12,55,10.90
2015,02,17,12,56,10.90
2015,02,17,12,57,11.00
2015,02,17,12,58,11.00
2015,02,17,12,59,11.00
2015,02,17,13,00,11.00
2015,02,17,13,01,11.00
2015,02,17,13,02,11.10
2015,02,17,13,03,11.10
2015,02,17,13,04,11.00
2015,02,17,13,05,11.00
2015,02,17,13,06,11.00
2015,02,17,13,07,11.00
2015,02,17,13,08,11.00
2015,02,17,13,09,11.00
2015,02,17,13,10,11.00
2015,02,17,13,11,11.00
2015,02,17,13,12,11.10
2015,02,17,13,13,11.10
2015,02,17,13,14,11.20
2015,02,17,13,15,11.20
2015,02,17,13,16,11.20
2015,02,17,13,17,11.10
2015,02,17,13,18,11.10
2015,02,17,13,19,11.00
2015,02,17,13,20,11.00
2015,02,17,13,21,10.90
2015,02,17,13,22,10.90
2015,02,17,13,23,10.80
2015,02,17,13,24,10.80
2015,02,17,13,25,10.80
2015,02,17,13,26,10.80
2015,02,17,13,27,10.70
2015,02,17,13,28,10.70
2015,02,17,13,29,10.70
2015,02,17,13,30,10.70
2015,02,17,13,31,10.70
2015,02,17,13,32,10.70
2015,02,17,13,33,10.80
2015,02,17,13,34,10.80
2015,02,17,13,35,10.80
2015,02,17,13,36,10.80
2015,02,17,13,37,10.80
2015,02,17,13,38,10.80
2015,02,17,13,39,10.80
2015,02,17,13,40,10.80
2015,02,17,13,41,10.80
2015,02,17,13,42,10.80
2015,02,17,13,43,10.80
2015,02,17,13,44,10.80
2015,02,17,13,45,10.80
2015,02,17,13,46,10.80
2015,02,17,13,47,10.90
2015,02,17,13,48,10.90
2015,02,17,13,49,10.90
2015,02,17,13,50,10.90
2015,02,17,13,51,10.90
2015,02,17,13,52,11.00
2015,02,17,13,53,11.00
2015,02,17,13,54,11.00
2015,02,17,13,55,11.00
2015,02,17,13,56,11.00
2015,02,17,13,57,11.00
2015,02,17,13,58,10.90
2015,02,17,13,59,10.90
2015,02,17,14,00,10.90
2015,02,17,14,01,10.90
2015,02,17,14,02,10.90
2015,02,17,14,03,10.90
2015,02,17,14,04,10.90
2015,02,17,14,05,10.90
2015,02,17,14,06,10.90
2015,02,17,14,07,10.90
2015,02,17,14,08,10.90
2015,02,17,14,09,10.90
2015,02,17,14,10,10.90
2015,02,17,14,11,11.00
2015,02,17,14,12,11.00
2015,02,17,14,13,11.00
2015,02,17,14,14,11.00
2015,02,17,14,15,11.00
2015,02,17,14,16,11.00
2015,02,17,14,17,11.00
2015,02,17,14,18,11.00
2015,02,17,14,19,11.00
2015,02,17,14,20,11.10
2015,02,17,14,21,11.10
2015,02,17,14,22,11.10
2015,02,17,14,23,11.10
2015,02,17,14,24,11.10
2015,02,17,14,25,11.10
2015,02,17,14,26,11.20
2015,02,17,14,27,11.20
2015,02,17,14,28,11.20
2015,02,17,14,29,11.20
2015,02,17,14,30,11.20
2015,02,17,14,31,11.20
2015,02,17,14,32,11.20
2015,02,17,14,33,11.20
2015,02,17,14,34,11.20
2015,02,17,14,35,11.20
2015,02,17,14,36,11.20
2015,02,17,14,37,11.20
2015,02,17,14,38,11.20
2015,02,17,14,39,11.20
2015,02,17,14,40,11.20
2015,02,17,14,41,11.20
2015,02,17,14,42,11.20
2015,02,17,14,43,11.10
2015,02,17,14,44,11.10
2015,02,17,14,45,11.10
2015,02,17,14,46,11.10
2015,02,17,14,47,11.10
2015,02,17,14,48,11.10
2015,02,17,14,49,11.10
2015,02,17,14,50,11.10
2015,02,17,14,51,11.10
2015,02,17,14,52,11.10
2015,02,17,14,53,11.10
2015,02,17,14,54,11.10
2015,02,17,14,55,11.10
2015,02,17,14,56,11.10
2015,02,17,14,57,11.10
2015,02,17,14,58,11.10
2015,02,17,14,59,11.10
2015,02,17,15,00,11.10
2015,02,17,15,01,11.10
2015,02,17,15,02,11.10
2015,02,17,15,03,11.10
2015,02,17,15,04,11.10
2015,02,17,15,05,11.10
2015,02,17,15,06,11.10
2015,02,17,15,07,11.10
2015,02,17,15,08,11.10
2015,02,17,15,09,11.10
2015,02,17,15,10,11.10
2015,02,17,15,11,11.10
2015,02,17,15,12,11.10
2015,02,17,15,13,11.10
2015,02,17,15,14,11.10
2015,02,17,15,15,11.10
2015,02,17,15,16,11.10
2015,02,17,15,17,11.10
2015,02,17,15,18,11.10
2015,02,17,15,19,11.10
2015,02,17,15,20,11.10
2015,02,17,15,21,11.10
2015,02,17,15,22,11.10
2015,02,17,15,23,11.10
2015,02,17,15,24,11.10
2015,02,17,15,25,11.20
2015,02,17,15,26,11.20
2015,02,17,15,27,11.10
2015,02,17,15,28,11.10
2015,02,17,15,29,11.10
2015,02,17,15,30,11.10
2015,02,17,15,31,11.10
2015,02,17,15,32,11.10
2015,02,17,15,33,11.10
2015,02,17,15,34,11.00
2015,02,17,15,35,11.00
2015,02,17,15,36,11.00
2015,02,17,15,37,11.00
2015,02,17,15,38,11.00
2015,02,17,15,39,11.00
2015,02,17,15,40,11.00
2015,02,17,15,41,11.00
2015,02,17,15,42,10.90
2015,02,17,15,43,10.90
2015,02,17,15,44,10.90
2015,02,17,15,45,10.90
2015,02,17,15,46,10.90
2015,02,17,15,47,10.90
2015,02,17,15,48,10.90
2015,02,17,15,49,10.90
2015,02,17,15,50,10.90
2015,02,17,15,51,10.90
2015,02,17,15,52,10.90
2015,02,17,15,53,10.90
2015,02,17,15,54,10.80
2015,02,17,15,55,10.80
2015,02,17,15,56,10.80
2015,02,17,15,57,10.70
2015,02,17,15,58,10.70
2015,02,17,15,59,10.70
2015,02,17,16,00,10.70
2015,02,17,16,01,10.70
2015,02,17,16,02,10.60
2015,02,17,16,03,10.60
2015,02,17,16,04,10.60
2015,02,17,16,05,10.60
2015,02,17,16,06,10.60
2015,02,17,16,07,10.50
2015,02,17,16,08,10.50
2015,02,17,16,09,10.50
2015,02,17,16,10,10.50
2015,02,17,16,11,10.40
2015,02,17,16,12,10.40
2015,02,17,16,13,10.30
2015,02,17,16,14,10.30
2015,02,17,16,15,10.30
2015,02,17,16,16,10.30
2015,02,17,16,17,10.30
2015,02,17,16,18,10.30
2015,02,17,16,19,10.30
2015,02,17,16,20,10.30
2015,02,17,16,21,10.30
2015,02,17,16,22,10.20
2015,02,17,16,23,10.20
2015,02,17,16,24,10.20
2015,02,17,16,25,10.20
2015,02,17,16,26,10.20
2015,02,17,16,27,10.20
2015,02,17,16,28,10.20
2015,02,17,16,29,10.20
2015,02,17,16,30,10.20
2015,02,17,16,31,10.20
2015,02,17,16,32,10.20
2015,02,17,16,33,10.20
2015,02,17,16,34,10.20
2015,02,17,16,35,10.20
2015,02,17,16,36,10.20
2015,02,17,16,37,10.20
2015,02,17,16,38,10.20
2015,02,17,16,39,10.10
2015,02,17,16,40,10.10
2015,02,17,16,41,10.10
2015,02,17,16,42,10.10
2015,02,17,16,43,10.10
2015,02,17,16,44,10.00
2015,02,17,16,45,10.00
2015,02,17,16,46,10.00
2015,02,17,16,47,9.90
2015,02,17,16,48,9.90
2015,02,17,16,49,9.80
2015,02,17,16,50,9.80
2015,02,17,16,51,9.70
2015,02,17,16,52,9.60
2015,02,17,16,53,9.50
2015,02,17,16,54,9.50
2015,02,17,16,55,9.40
2015,02,17,16,56,9.30
2015,02,17,16,57,9.20
2015,02,17,16,58,9.10
2015,02,17,16,59,9.00
2015,02,17,17,00,8.90
2015,02,17,17,01,8.90
2015,02,17,17,02,8.80
2015,02,17,17,03,8.70
2015,02,17,17,04,8.70
2015,02,17,17,05,8.70
2015,02,17,17,06,8.70
2015,02,17,17,07,8.60
2015,02,17,17,08,8.60
2015,02,17,17,09,8.60
2015,02,17,17,10,8.50
2015,02,17,17,11,8.50
2015,02,17,17,12,8.40
2015,02,17,17,13,8.40
2015,02,17,17,14,8.40
2015,02,17,17,15,8.30
2015,02,17,17,16,8.30
2015,02,17,17,17,8.40
2015,02,17,17,18,8.40
2015,02,17,17,19,8.40
2015,02,17,17,20,8.40
2015,02,17,17,21,8.40
2015,02,17,17,22,8.40
2015,02,17,17,23,8.40
2015,02,17,17,24,8.30
2015,02,17,17,25,8.20
2015,02,17,17,26,8.20
2015,02,17,17,27,8.10
2015,02,17,17,28,8.00
2015,02,17,17,29,7.90
2015,02,17,17,30,7.80
2015,02,17,17,31,7.70
2015,02,17,17,32,7.60
2015,02,17,17,33,7.50
2015,02,17,17,34,7.50
2015,02,17,17,35,7.40
2015,02,17,17,36,7.30
2015,02,17,17,37,7.20
2015,02,17,17,38,7.20
2015,02,17,17,39,7.20
2015,02,17,17,40,7.10
2015,02,17,17,41,7.00
2015,02,17,17,42,6.90
2015,02,17,17,43,6.90
2015,02,17,17,44,6.80
2015,02,17,17,45,6.80
2015,02,17,17,46,6.70
2015,02,17,17,47,6.70
2015,02,17,17,48,6.60
2015,02,17,17,49,6.60
2015,02,17,17,50,6.50
2015,02,17,17,51,6.50
2015,02,17,17,52,6.40